sat.trackr.live / text

‹ back to catalog

IRIDIUM 157

NORAD 43251 · 2018-030C

PAYLOAD ACTIVE UNKNOWN

§ Identity

Operator
Country
US
Launch date
2018-03-30
Launch site
AFWTR
Launch vehicle
Mass (kg)
RCS (m²)

Purposes: comms

External: N2YO · Heavens-Above · Gunter

§ Orbital elements

Epoch: 2026-05-24T22:52:43.409280Z

Period
100.40 min
Inclination
86.3939°
Eccentricity
0.0002166
Mean motion
14.34217731 rev/d
Perigee alt
776.1 km
Apogee alt
779.2 km
Semi-major
7,155.8 km
B*
5.4360e-6
RAAN
300.1386°
Arg perigee
91.9353°
Mean anomaly
268.2091°
Rev number
42,680

§ Raw data

IRIDIUM 1571 43251U 18030C   26144.95328020  .00000035  00000+0  54360-5 0  99932 43251  86.3939 300.1386 0002166  91.9353 268.2091 14.34217731426802

JSON: /api/v1/satellites/43251 · /tle

For live sub-satellite position, see the globe view (requires WebGL).

§ Visibility from observer

Set your observer location to see the next 7 days of passes ≥ 10°. The values pass through the URL so the page stays shareable.

No JS? Fill the form by hand. The geolocation button needs JavaScript.